View from above orbital plane
|
View from above satellite
|
Ground track
|
The orbit data is extracted from the following two-line orbital elements,
1 15333U 84106A 21059.51093199 -.00000229 00000-0 -95060-4 0 9997
2 15333 71.0274 140.4972 0021916 304.1189 55.7854 14.14114669879195
Epoch (UTC): | 28 February 2021 12:15:44 |
Eccentricity: | 0.0021916 |
inclination: | 71.0274° |
perigee height: | 829 km |
apogee height: | 861 km |
right ascension of ascending node: | 140.4972° |
argument of perigee: | 304.1189° |
revolutions per day: | 14.14114669 |
mean anomaly at epoch: | 55.7854° |
orbit number at epoch: | 87919 |
The dashed part of the orbit path shows where the satellite is in the earth's shadow,
|
|